Regional Weather Roundup
Issued by NWS Sioux Falls, SD

Home | Current Version | Previous Version | Text Only | Print | Product List | Glossary On
Versions: 1 2 3 4 5 6 7 8 9 10 11 12 13 14 15 16 17 18 19 20 21 22 23 24 25 26 27 28 29 30 31 32 33 34 35 36 37 38 39 40 41 42 43 44 45 46 47 48 49 50
000
ASUS43 KFSD 302202
RWRFSD

WEATHER ROUNDUP FOR SE SOUTH DAKOTA/SW MINNESOTA/NW IOWA
NATIONAL WEATHER SERVICE SIOUX FALLS SD
500 PM CDT THU MAR 30 2017

NOTE: "FAIR" INDICATES FEW OR NO CLOUDS BELOW 12,000 FEET WITH NO
SIGNIFICANT WEATHER AND OR OBSTRUCTIONS TO VISIBILITY.


SDZ038>040-050-052>070-302300-
SOUTHEAST SOUTH DAKOTA

CITY           SKY/WX    TMP DP  RH WIND       PRES   REMARKS
BROOKINGS      CLOUDY    44  36  73 NE12      29.79F
CHAMBERLAIN    CLOUDY    48  37  64 NE8       29.81S
HURON          CLOUDY    46  36  68 NE12      29.83R
MADISON        CLOUDY    43  43 100 NE14      29.79F
MITCHELL       CLOUDY    47  37  68 NE12      29.82S
SIOUX FALLS    CLOUDY    44  39  82 NE14      29.79S
WINNER         CLOUDY    48  35  60 NE8       29.80R
YANKTON        CLOUDY    45  37  76 NE12      29.78S
$$

MNZ071-072-080-081-089-090-097-098-302300-
SOUTHWEST MINNESOTA

CITY           SKY/WX    TMP DP  RH WIND       PRES   REMARKS
FAIRMONT       CLOUDY    39  37  92 NE16      29.77S
JACKSON          N/A     37  36  93 NE17      29.77F
MARSHALL       CLOUDY    47  37  68 NE15      29.80F
MONTEVIDEO     CLOUDY    50  37  62 E12G17    29.82S
PIPESTONE      CLOUDY    43  36  75 NE10G17   29.78S
REDWOOD FALLS  CLOUDY    46  36  68 NE10      29.80F
TRACY          CLOUDY    44  40  85 NE9       29.80F
WINDOM         PTSUNNY   39  37  93 NE13      29.78S
WORTHINGTON    CLOUDY    39  37  92 NE17      29.78S
$$

IAZ001>003-012>014-020>022-031-032-NEZ013-014-SDZ071-302300-
NORTHWEST IOWA

CITY           SKY/WX    TMP DP  RH WIND       PRES   REMARKS
CHEROKEE       CLOUDY    40  39  96 N15       29.75S
DENISON        CLOUDY    41  39  93 NE16      29.72R
ESTHERVILLE    CLOUDY    38  38 100 NE18      29.75S
LE MARS        CLOUDY    43  39  87 NE14      29.77S
ORANGE CITY    CLOUDY    39  37  93 NE9       29.75F
SHELDON        CLOUDY    39  37  93 NE13G20   29.75S
SIOUX CITY     CLOUDY    44  39  82 N12       29.76R
SPENCER        CLOUDY    40  38  93 NE18      29.75S
STORM LAKE     CLOUDY    39  39 100 NE15G23   29.72S
$$

ABBREVIATIONS USED IN REMARKS
   TC - TEMPERATURE IN CELSIUS
  WCI - WIND CHILL INDEX
   HX - HEAT INDEX
  VSB - VISIBILITY




USA.gov is the U.S. government's official web portal to all federal, state and local government web resources and services.